| time (UTC) | temp C | wind direction | speed KPH | gust KPH | rain 1hr cm | rain 24hr cm | rain mn cm | humidity % | barometer mb |
| 20260506051057 | 18 | 333 | 0.0 | 4.8 | 0.00 | 0.00 | 0.00 | 77 | 1009.2 |
| 20260506050555 | 18 | 0 | 0.0 | 3.2 | 0.00 | 0.00 | 0.00 | 77 | 1009.2 |
| 20260506050109 | 18 | 0 | 0.0 | 3.2 | 0.00 | 0.00 | 0.00 | 77 | 1009.4 |
| 20260506045059 | 18 | 71 | 0.0 | 3.2 | 0.00 | 0.00 | 0.00 | 77 | 1009.1 |
| 20260506044601 | 18 | 9 | 0.0 | 3.2 | 0.00 | 0.00 | 0.00 | 77 | 1009.0 |
| 20260506044055 | 18 | 0 | 0.0 | 3.2 | 0.00 | 0.00 | 0.00 | 77 | 1009.0 |
| 20260506043554 | 18 | 0 | 0.0 | 3.2 | 0.00 | 0.00 | 0.00 | 76 | 1009.0 |
| 20260506043057 | 18 | 0 | 0.0 | 3.2 | 0.00 | 0.00 | 0.00 | 76 | 1009.0 |
| 20260506042556 | 18 | 0 | 0.0 | 3.2 | 0.00 | 0.00 | 0.00 | 76 | 1009.2 |
| 20260506042055 | 19 | 0 | 0.0 | 3.2 | 0.00 | 0.00 | 0.00 | 76 | 1008.9 |
| 20260506041602 | 19 | 351 | 0.0 | 3.2 | 0.00 | 0.00 | 0.00 | 75 | 1009.1 |
| 20260506041055 | 19 | 0 | 0.0 | 4.8 | 0.00 | 0.00 | 0.00 | 75 | 1009.2 |
| 20260506040557 | 19 | 0 | 0.0 | 4.8 | 0.00 | 0.00 | 0.00 | 75 | 1009.1 |
| 20260506040100 | 20 | 0 | 0.0 | 4.8 | 0.00 | 0.00 | 0.00 | 75 | 1009.2 |
| 20260506035554 | 20 | 0 | 0.0 | 4.8 | 0.00 | 0.00 | 0.00 | 75 | 1009.2 |
| 20260506035054 | 20 | 0 | 0.0 | 4.8 | 0.00 | 0.00 | 0.00 | 74 | 1009.1 |
| 20260506034601 | 20 | 23 | 0.0 | 4.8 | 0.00 | 0.00 | 0.00 | 74 | 1009.1 |
| 20260506034054 | 20 | 0 | 0.0 | 4.8 | 0.00 | 0.00 | 0.00 | 74 | 1008.8 |
| 20260506033555 | 20 | 333 | 0.0 | 3.2 | 0.00 | 0.00 | 0.00 | 74 | 1008.7 |
| 20260506033058 | 20 | 0 | 0.0 | 3.2 | 0.00 | 0.00 | 0.00 | 74 | 1008.7 |
| 20260506032557 | 20 | 0 | 0.0 | 3.2 | 0.00 | 0.00 | 0.00 | 74 | 1008.7 |
| 20260506032057 | 20 | 69 | 0.0 | 6.4 | 0.00 | 0.00 | 0.00 | 74 | 1008.5 |
| 20260506031603 | 20 | 0 | 0.0 | 6.4 | 0.00 | 0.00 | 0.00 | 74 | 1008.3 |
| 20260506031055 | 20 | 44 | 0.0 | 3.2 | 0.00 | 0.00 | 0.00 | 74 | 1008.0 |
| 20260506030554 | 20 | 0 | 0.0 | 4.8 | 0.00 | 0.00 | 0.00 | 74 | 1007.8 |
| 20260506030100 | 20 | 5 | 0.0 | 4.8 | 0.00 | 0.00 | 0.00 | 74 | 1007.7 |
| 20260506025556 | 20 | 0 | 0.0 | 3.2 | 0.00 | 0.00 | 0.00 | 75 | 1007.7 |
| 20260506025054 | 21 | 296 | 0.0 | 6.4 | 0.00 | 0.00 | 0.00 | 74 | 1007.3 |
| 20260506024600 | 21 | 0 | 0.0 | 6.4 | 0.00 | 0.00 | 0.00 | 74 | 1007.2 |
| 20260506024054 | 21 | 40 | 0.0 | 3.2 | 0.00 | 0.00 | 0.00 | 73 | 1007.4 |
| 20260506023555 | 21 | 0 | 0.0 | 4.8 | 0.00 | 0.00 | 0.00 | 72 | 1007.5 |
| 20260506023055 | 21 | 13 | 0.0 | 4.8 | 0.00 | 0.00 | 0.00 | 72 | 1007.2 |
| 20260506022555 | 22 | 0 | 0.0 | 4.8 | 0.00 | 0.00 | 0.00 | 71 | 1007.1 |
| 20260506022054 | 22 | 0 | 0.0 | 4.8 | 0.00 | 0.00 | 0.00 | 71 | 1007.1 |
| 20260506021555 | 22 | 178 | 0.0 | 4.8 | 0.00 | 0.00 | 0.00 | 71 | 1006.8 |
| 20260506021056 | 22 | 0 | 0.0 | 8.0 | 0.00 | 0.00 | 0.00 | 71 | 1006.8 |
| 20260506020553 | 22 | 0 | 0.0 | 8.0 | 0.00 | 0.00 | 0.00 | 71 | 1006.7 |
| 20260506020107 | 22 | 38 | 1.6 | 8.0 | 0.00 | 0.00 | 0.00 | 71 | 1006.5 |
| 20260506015555 | 22 | 0 | 0.0 | 1.6 | 0.00 | 0.00 | 0.00 | 71 | 1006.5 |
| 20260506015055 | 22 | 0 | 0.0 | 3.2 | 0.00 | 0.00 | 0.00 | 71 | 1006.2 |
| 20260506014611 | 22 | 71 | 0.0 | 3.2 | 0.00 | 0.00 | 0.00 | 71 | 1006.3 |
| 20260506014054 | 22 | 0 | 0.0 | 3.2 | 0.00 | 0.00 | 0.00 | 71 | 1005.9 |
| 20260506013554 | 22 | 0 | 0.0 | 4.8 | 0.00 | 0.00 | 0.00 | 71 | 1005.7 |
| 20260506013055 | 22 | 0 | 0.0 | 4.8 | 0.00 | 0.00 | 0.00 | 70 | 1005.6 |
| 20260506012554 | 22 | 0 | 0.0 | 4.8 | 0.00 | 0.00 | 0.00 | 70 | 1005.4 |
| 20260506012055 | 22 | 0 | 0.0 | 3.2 | 0.00 | 0.00 | 0.00 | 70 | 1005.4 |
| 20260506011617 | 23 | 0 | 0.0 | 4.8 | 0.00 | 0.00 | 0.00 | 69 | 1005.2 |
| 20260506011055 | 23 | 0 | 0.0 | 4.8 | 0.00 | 0.00 | 0.00 | 69 | 1005.3 |
| 20260506010557 | 23 | 277 | 0.0 | 3.2 | 0.00 | 0.00 | 0.00 | 69 | 1005.1 |
| 20260506010054 | 23 | 0 | 0.0 | 3.2 | 0.00 | 0.00 | 0.00 | 69 | 1005.1 |
| 20260506005555 | 24 | 0 | 0.0 | 3.2 | 0.00 | 0.00 | 0.00 | 68 | 1005.2 |
| 20260506005054 | 24 | 0 | 0.0 | 3.2 | 0.00 | 0.00 | 0.00 | 68 | 1005.3 |
| 20260506004603 | 24 | 189 | 0.0 | 3.2 | 0.00 | 0.00 | 0.00 | 67 | 1005.1 |
| 20260506004054 | 25 | 18 | 0.0 | 6.4 | 0.00 | 0.00 | 0.00 | 66 | 1004.9 |
| 20260506003554 | 25 | 0 | 0.0 | 6.4 | 0.00 | 0.00 | 0.00 | 66 | 1004.6 |
| 20260506003056 | 25 | 0 | 0.0 | 6.4 | 0.00 | 0.00 | 0.00 | 66 | 1004.6 |
| 20260506002554 | 25 | 0 | 0.0 | 4.8 | 0.00 | 0.00 | 0.00 | 66 | 1004.6 |
| 20260506002054 | 26 | 0 | 0.0 | 4.8 | 0.00 | 0.00 | 0.00 | 66 | 1004.6 |
| 20260506001556 | 26 | 0 | 0.0 | 4.8 | 0.00 | 0.00 | 0.00 | 66 | 1004.4 |
| 20260506001054 | 26 | 84 | 0.0 | 4.8 | 0.00 | 0.00 | 0.00 | 65 | 1004.4 |
| 20260506000554 | 27 | 0 | 0.0 | 6.4 | 0.00 | 0.00 | 0.00 | 65 | 1004.5 |
| 20260506000117 | 27 | 340 | 0.0 | 6.4 | 0.00 | 0.00 | 0.00 | 63 | 1004.3 |
| 20260505235555 | 28 | 27 | 0.0 | 3.2 | 0.00 | 0.00 | 0.00 | 62 | 1004.2 |
| 20260505235055 | 28 | 302 | 0.0 | 4.8 | 0.00 | 0.00 | 0.00 | 61 | 1004.2 |
| 20260505234555 | 28 | 0 | 0.0 | 4.8 | 0.00 | 0.00 | 0.00 | 60 | 1003.8 |
| 20260505234055 | 29 | 51 | 0.0 | 4.8 | 0.00 | 0.00 | 0.00 | 58 | 1003.7 |
| 20260505233555 | 30 | 243 | 0.0 | 4.8 | 0.00 | 0.00 | 0.00 | 55 | 1003.5 |
| 20260505233057 | 30 | 0 | 0.0 | 1.6 | 0.00 | 0.00 | 0.00 | 57 | 1003.4 |
| 20260505232554 | 31 | 0 | 0.0 | 3.2 | 0.00 | 0.00 | 0.00 | 55 | 1003.2 |
| 20260505232055 | 31 | 165 | 0.0 | 4.8 | 0.00 | 0.00 | 0.00 | 54 | 1003.1 |
| 20260505231611 | 32 | 0 | 0.0 | 4.8 | 0.00 | 0.00 | 0.00 | 50 | 1003.1 |
| 20260505231054 | 32 | 215 | 0.0 | 3.2 | 0.00 | 0.00 | 0.00 | 49 | 1003.2 |
| 20260505230554 | 32 | 0 | 0.0 | 3.2 | 0.00 | 0.00 | 0.00 | 50 | 1003.2 |
| 20260505230107 | 32 | 0 | 0.0 | 3.2 | 0.00 | 0.00 | 0.00 | 50 | 1003.1 |
| 20260505225556 | 32 | 0 | 0.0 | 3.2 | 0.00 | 0.00 | 0.00 | 51 | 1003.0 |
| 20260505225054 | 32 | 0 | 0.0 | 1.6 | 0.00 | 0.00 | 0.00 | 51 | 1003.2 |
| 20260505224558 | 32 | 0 | 0.0 | 1.6 | 0.00 | 0.00 | 0.00 | 49 | 1003.2 |
| 20260505224054 | 32 | 0 | 0.0 | 1.6 | 0.00 | 0.00 | 0.00 | 51 | 1003.2 |
| 20260505223558 | 32 | 29 | 0.0 | 1.6 | 0.00 | 0.00 | 0.00 | 50 | 1003.2 |
| 20260505223101 | 32 | 0 | 0.0 | 3.2 | 0.00 | 0.00 | 0.00 | 47 | 1003.3 |
| 20260505222554 | 32 | 0 | 0.0 | 3.2 | 0.00 | 0.00 | 0.00 | 46 | 1003.1 |
| 20260505222054 | 32 | 66 | 0.0 | 3.2 | 0.00 | 0.00 | 0.00 | 46 | 1003.1 |
| 20260505221601 | 33 | 200 | 0.0 | 3.2 | 0.00 | 0.00 | 0.00 | 46 | 1003.1 |
| 20260505221055 | 32 | 0 | 0.0 | 3.2 | 0.00 | 0.00 | 0.00 | 47 | 1003.1 |
| 20260505220555 | 32 | 0 | 0.0 | 3.2 | 0.00 | 0.00 | 0.00 | 46 | 1002.9 |
| 20260505220058 | 33 | 0 | 0.0 | 3.2 | 0.00 | 0.00 | 0.00 | 48 | 1003.2 |
| 20260505215555 | 32 | 46 | 0.0 | 3.2 | 0.00 | 0.00 | 0.00 | 49 | 1003.1 |
| 20260505215057 | 32 | 0 | 0.0 | 3.2 | 0.00 | 0.00 | 0.00 | 46 | 1002.9 |
| 20260505214556 | 33 | 56 | 0.0 | 4.8 | 0.00 | 0.00 | 0.00 | 46 | 1003.1 |
| 20260505214100 | 33 | 22 | 0.0 | 4.8 | 0.00 | 0.00 | 0.00 | 49 | 1003.2 |
| 20260505213558 | 33 | 35 | 0.0 | 3.2 | 0.00 | 0.00 | 0.00 | 50 | 1003.2 |
| 20260505213057 | 33 | 0 | 0.0 | 3.2 | 0.00 | 0.00 | 0.00 | 46 | 1003.0 |
| 20260505212559 | 33 | 0 | 0.0 | 6.4 | 0.00 | 0.00 | 0.00 | 49 | 1003.3 |
| 20260505212056 | 33 | 0 | 0.0 | 6.4 | 0.00 | 0.00 | 0.00 | 47 | 1003.4 |
| 20260505211558 | 33 | 0 | 0.0 | 6.4 | 0.00 | 0.00 | 0.00 | 51 | 1003.3 |
| 20260505211056 | 33 | 0 | 0.0 | 4.8 | 0.00 | 0.00 | 0.00 | 48 | 1003.2 |
| 20260505210557 | 33 | 68 | 0.0 | 6.4 | 0.00 | 0.00 | 0.00 | 49 | 1003.3 |
| 20260505210054 | 33 | 99 | 0.0 | 6.4 | 0.00 | 0.00 | 0.00 | 48 | 1003.5 |
| 20260505205557 | 33 | 34 | 0.0 | 6.4 | 0.00 | 0.00 | 0.00 | 46 | 1003.5 |
| 20260505205056 | 33 | 0 | 0.0 | 6.4 | 0.00 | 0.00 | 0.00 | 47 | 1003.5 |
| 20260505204600 | 33 | 45 | 0.0 | 4.8 | 0.00 | 0.00 | 0.00 | 48 | 1003.8 |
| 20260505204057 | 33 | 97 | 0.0 | 4.8 | 0.00 | 0.00 | 0.00 | 47 | 1003.9 |
| 20260505203556 | 33 | 0 | 0.0 | 4.8 | 0.00 | 0.00 | 0.00 | 49 | 1003.9 |
| 20260505203102 | 33 | 79 | 0.0 | 6.4 | 0.00 | 0.00 | 0.00 | 49 | 1003.9 |
| 20260505202557 | 33 | 82 | 0.0 | 6.4 | 0.00 | 0.00 | 0.00 | 49 | 1003.7 |
| 20260505202056 | 33 | 54 | 0.0 | 4.8 | 0.00 | 0.00 | 0.00 | 52 | 1003.8 |
| 20260505201557 | 33 | 113 | 0.0 | 4.8 | 0.00 | 0.00 | 0.00 | 52 | 1004.1 |
| 20260505201057 | 33 | 44 | 0.0 | 4.8 | 0.00 | 0.00 | 0.00 | 50 | 1004.2 |
| 20260505200557 | 33 | 16 | 0.0 | 4.8 | 0.00 | 0.00 | 0.00 | 51 | 1004.2 |
| 20260505200056 | 33 | 76 | 0.0 | 4.8 | 0.00 | 0.00 | 0.00 | 49 | 1004.3 |
| 20260505195558 | 33 | 0 | 0.0 | 4.8 | 0.00 | 0.00 | 0.00 | 51 | 1004.3 |
| 20260505195056 | 33 | 0 | 0.0 | 4.8 | 0.00 | 0.00 | 0.00 | 51 | 1004.4 |
| 20260505194617 | 33 | 49 | 0.0 | 4.8 | 0.00 | 0.00 | 0.00 | 50 | 1004.2 |
| 20260505194056 | 32 | 78 | 0.0 | 4.8 | 0.00 | 0.00 | 0.00 | 57 | 1004.3 |
| 20260505193557 | 33 | 72 | 0.0 | 6.4 | 0.00 | 0.00 | 0.00 | 53 | 1004.3 |
| 20260505193059 | 33 | 0 | 0.0 | 6.4 | 0.00 | 0.00 | 0.00 | 57 | 1004.4 |
| 20260505192556 | 32 | 58 | 1.6 | 8.0 | 0.00 | 0.00 | 0.00 | 54 | 1004.4 |
| 20260505192056 | 32 | 86 | 1.6 | 8.0 | 0.00 | 0.00 | 0.00 | 53 | 1004.5 |
| 20260505191608 | 32 | 0 | 1.6 | 6.4 | 0.00 | 0.00 | 0.00 | 53 | 1004.7 |
| 20260505191057 | 32 | 0 | 1.6 | 6.4 | 0.00 | 0.00 | 0.00 | 55 | 1004.6 |
| 20260505190556 | 32 | 60 | 0.0 | 6.4 | 0.00 | 0.00 | 0.00 | 57 | 1004.7 |
| 20260505190057 | 32 | 90 | 0.0 | 4.8 | 0.00 | 0.00 | 0.00 | 59 | 1004.6 |
| 20260505185556 | 32 | 89 | 0.0 | 3.2 | 0.00 | 0.00 | 0.00 | 58 | 1004.7 |
| 20260505185057 | 32 | 46 | 0.0 | 3.2 | 0.00 | 0.00 | 0.00 | 60 | 1004.6 |
| 20260505184556 | 32 | 0 | 0.0 | 4.8 | 0.00 | 0.00 | 0.00 | 58 | 1004.8 |
| 20260505184057 | 31 | 0 | 0.0 | 6.4 | 0.00 | 0.00 | 0.00 | 62 | 1004.8 |
| 20260505183556 | 31 | 0 | 1.6 | 6.4 | 0.00 | 0.00 | 0.00 | 58 | 1004.9 |
| 20260505183100 | 31 | 0 | 0.0 | 6.4 | 0.00 | 0.00 | 0.00 | 59 | 1005.0 |
| 20260505182557 | 31 | 0 | 0.0 | 6.4 | 0.00 | 0.00 | 0.00 | 63 | 1005.0 |
| 20260505182100 | 31 | 50 | 0.0 | 6.4 | 0.00 | 0.00 | 0.00 | 63 | 1005.2 |
| 20260505181556 | 31 | 0 | 1.6 | 6.4 | 0.00 | 0.00 | 0.00 | 62 | 1005.3 |
| 20260505181100 | 31 | 0 | 0.0 | 6.4 | 0.00 | 0.00 | 0.00 | 62 | 1005.1 |
| 20260505180556 | 31 | 64 | 0.0 | 8.0 | 0.00 | 0.00 | 0.00 | 62 | 1005.1 |
| 20260505180100 | 30 | 346 | 0.0 | 8.0 | 0.00 | 0.00 | 0.00 | 64 | 1005.3 |
| 20260505175556 | 31 | 352 | 0.0 | 8.0 | 0.00 | 0.00 | 0.00 | 63 | 1005.3 |
| 20260505175056 | 31 | 61 | 1.6 | 8.0 | 0.00 | 0.00 | 0.00 | 63 | 1005.4 |
| 20260505174558 | 31 | 79 | 0.0 | 6.4 | 0.00 | 0.00 | 0.00 | 66 | 1005.3 |
| 20260505174056 | 31 | 49 | 1.6 | 6.4 | 0.00 | 0.00 | 0.00 | 65 | 1005.3 |
| 20260505173556 | 30 | 326 | 1.6 | 6.4 | 0.00 | 0.00 | 0.00 | 65 | 1005.4 |
| 20260505173113 | 30 | 109 | 1.6 | 3.2 | 0.00 | 0.00 | 0.00 | 66 | 1005.5 |
| 20260505172556 | 30 | 60 | 0.0 | 9.7 | 0.00 | 0.00 | 0.00 | 69 | 1005.5 |
| 20260505172056 | 28 | 0 | 1.6 | 9.7 | 0.00 | 0.00 | 0.00 | 69 | 1005.6 |
| 20260505171618 | 28 | 85 | 0.0 | 9.7 | 0.00 | 0.00 | 0.00 | 68 | 1005.4 |
| 20260505171056 | 28 | 78 | 1.6 | 9.7 | 0.00 | 0.00 | 0.00 | 69 | 1005.3 |
| 20260505170556 | 28 | 152 | 1.6 | 8.0 | 0.00 | 0.00 | 0.00 | 68 | 1005.3 |
| 20260505170055 | 28 | 98 | 1.6 | 11.3 | 0.00 | 0.00 | 0.00 | 68 | 1005.2 |
| 20260505165557 | 28 | 32 | 0.0 | 11.3 | 0.00 | 0.00 | 0.00 | 69 | 1005.3 |
| 20260505165056 | 28 | 156 | 1.6 | 9.7 | 0.00 | 0.00 | 0.00 | 69 | 1005.4 |
| 20260505164604 | 28 | 81 | 1.6 | 8.0 | 0.00 | 0.00 | 0.00 | 69 | 1005.3 |
| 20260505164056 | 28 | 164 | 0.0 | 8.0 | 0.00 | 0.00 | 0.00 | 70 | 1005.2 |
| 20260505163556 | 28 | 69 | 0.0 | 8.0 | 0.00 | 0.00 | 0.00 | 70 | 1005.3 |
| 20260505163055 | 27 | 30 | 0.0 | 8.0 | 0.00 | 0.00 | 0.00 | 71 | 1005.4 |
| 20260505162556 | 27 | 44 | 0.0 | 8.0 | 0.00 | 0.00 | 0.00 | 71 | 1005.3 |
| 20260505162057 | 27 | 59 | 1.6 | 8.0 | 0.00 | 0.00 | 0.00 | 71 | 1005.1 |
| 20260505161557 | 27 | 45 | 1.6 | 9.7 | 0.00 | 0.00 | 0.00 | 72 | 1005.1 |
| 20260505161057 | 27 | 108 | 3.2 | 9.7 | 0.00 | 0.00 | 0.00 | 72 | 1005.1 |
| 20260505160555 | 27 | 190 | 0.0 | 11.3 | 0.00 | 0.00 | 0.00 | 73 | 1005.2 |
| 20260505153054 | 26 | 72 | 1.6 | 6.4 | 0.00 | 0.00 | 0.00 | 73 | 1005.4 |
| 20260505152555 | 27 | 63 | 1.6 | 9.7 | 0.00 | 0.00 | 0.00 | 76 | 1005.4 |
| 20260505152054 | 26 | 0 | 1.6 | 9.7 | 0.00 | 0.00 | 0.00 | 75 | 1005.5 |
| 20260505151555 | 27 | 151 | 1.6 | 8.0 | 0.00 | 0.00 | 0.00 | 75 | 1005.4 |
| 20260505151055 | 26 | 252 | 0.0 | 9.7 | 0.00 | 0.00 | 0.00 | 76 | 1005.6 |
| 20260505150555 | 26 | 135 | 1.6 | 9.7 | 0.00 | 0.00 | 0.00 | 76 | 1005.6 |
| 20260505150110 | 25 | 182 | 1.6 | 8.0 | 0.00 | 0.00 | 0.00 | 77 | 1005.6 |
| 20260505140555 | 23 | 24 | 1.6 | 9.7 | 0.00 | 0.00 | 0.00 | 82 | 1005.4 |
| 20260505130111 | 21 | 198 | 0.0 | 4.8 | 0.00 | 0.00 | 0.00 | 88 | 1005.2 |
| 20260505124611 | 21 | 0 | 0.0 | 4.8 | 0.00 | 0.00 | 0.00 | 88 | 1005.1 |
| 20260505124057 | 21 | 0 | 0.0 | 3.2 | 0.00 | 0.00 | 0.00 | 89 | 1005.1 |
| 20260505123557 | 21 | 0 | 0.0 | 3.2 | 0.00 | 0.00 | 0.00 | 88 | 1005.0 |
| 20260505123116 | 21 | 0 | 0.0 | 3.2 | 0.00 | 0.00 | 0.00 | 88 | 1004.7 |
| 20260505122554 | 21 | 53 | 0.0 | 3.2 | 0.00 | 0.00 | 0.00 | 89 | 1004.7 |
| 20260505122055 | 21 | 0 | 0.0 | 6.4 | 0.00 | 0.00 | 0.00 | 88 | 1004.5 |
| 20260505121623 | 21 | 0 | 1.6 | 6.4 | 0.00 | 0.00 | 0.00 | 88 | 1004.5 |
| 20260505121055 | 21 | 0 | 1.6 | 6.4 | 0.00 | 0.00 | 0.00 | 89 | 1004.3 |
| 20260505120555 | 20 | 0 | 0.0 | 8.0 | 0.00 | 0.00 | 0.00 | 89 | 1004.2 |
| 20260505120058 | 20 | 180 | 1.6 | 8.0 | 0.00 | 0.00 | 0.00 | 89 | 1004.1 |
| 20260505115554 | 20 | 0 | 0.0 | 6.4 | 0.00 | 0.00 | 0.00 | 89 | 1004.1 |
| 20260505115054 | 20 | 0 | 1.6 | 6.4 | 0.00 | 0.00 | 0.00 | 89 | 1004.1 |
| 20260505114555 | 20 | 166 | 0.0 | 8.0 | 0.00 | 0.00 | 0.00 | 89 | 1003.9 |
| 20260505114054 | 20 | 36 | 1.6 | 12.9 | 0.00 | 0.00 | 0.00 | 89 | 1003.9 |
| 20260505113554 | 20 | 81 | 1.6 | 12.9 | 0.00 | 0.00 | 0.00 | 89 | 1003.7 |
| 20260505113103 | 20 | 48 | 1.6 | 12.9 | 0.00 | 0.00 | 0.00 | 89 | 1003.7 |
| 20260505112555 | 20 | 44 | 0.0 | 6.4 | 0.00 | 0.00 | 0.00 | 89 | 1003.8 |
| 20260505112056 | 20 | 223 | 1.6 | 8.0 | 0.00 | 0.00 | 0.00 | 89 | 1004.0 |
| 20260505111556 | 20 | 80 | 0.0 | 8.0 | 0.00 | 0.00 | 0.00 | 89 | 1004.0 |
| 20260505111057 | 20 | 78 | 0.0 | 6.4 | 0.00 | 0.00 | 0.00 | 89 | 1003.9 |
| 20260505110557 | 20 | 46 | 0.0 | 6.4 | 0.00 | 0.00 | 0.00 | 89 | 1004.0 |
| 20260505102056 | 20 | 189 | 0.0 | 6.4 | 0.00 | 0.00 | 0.00 | 87 | 1003.9 |
| 20260505101559 | 20 | 32 | 1.6 | 8.0 | 0.00 | 0.00 | 0.00 | 87 | 1003.8 |
| 20260505101056 | 21 | 0 | 1.6 | 8.0 | 0.00 | 0.00 | 0.00 | 87 | 1003.9 |
| 20260505100555 | 21 | 65 | 1.6 | 9.7 | 0.00 | 0.00 | 0.00 | 87 | 1003.8 |
| 20260505100136 | 21 | 202 | 1.6 | 9.7 | 0.00 | 0.00 | 0.00 | 87 | 1004.0 |
| 20260505095558 | 21 | 73 | 1.6 | 8.0 | 0.00 | 0.00 | 0.00 | 87 | 1003.9 |
| 20260505095055 | 21 | 53 | 1.6 | 6.4 | 0.00 | 0.00 | 0.00 | 87 | 1004.0 |
| 20260505094556 | 21 | 64 | 1.6 | 6.4 | 0.00 | 0.00 | 0.00 | 87 | 1004.0 |
| 20260505094054 | 21 | 217 | 1.6 | 6.4 | 0.00 | 0.00 | 0.00 | 87 | 1004.0 |
| 20260505093555 | 21 | 260 | 0.0 | 6.4 | 0.00 | 0.00 | 0.00 | 87 | 1004.0 |
| 20260505093058 | 21 | 165 | 1.6 | 6.4 | 0.00 | 0.00 | 0.00 | 87 | 1004.0 |
| 20260505092558 | 21 | 0 | 0.0 | 6.4 | 0.00 | 0.00 | 0.00 | 86 | 1004.2 |
| 20260505092056 | 21 | 0 | 0.0 | 12.9 | 0.00 | 0.00 | 0.00 | 86 | 1004.3 |
| 20260505091616 | 21 | 9 | 1.6 | 12.9 | 0.00 | 0.00 | 0.00 | 86 | 1004.3 |
| 20260505091055 | 21 | 180 | 1.6 | 9.7 | 0.00 | 0.00 | 0.00 | 86 | 1004.3 |
| 20260505090555 | 21 | 76 | 1.6 | 9.7 | 0.00 | 0.00 | 0.00 | 86 | 1004.2 |
| 20260505085556 | 21 | 0 | 0.0 | 6.4 | 0.00 | 0.00 | 0.00 | 86 | 1004.4 |
| 20260505085059 | 21 | 78 | 1.6 | 6.4 | 0.00 | 0.00 | 0.00 | 85 | 1004.5 |
| 20260505084557 | 21 | 69 | 0.0 | 8.0 | 0.00 | 0.00 | 0.00 | 85 | 1004.6 |
| 20260505084057 | 21 | 205 | 1.6 | 8.0 | 0.00 | 0.00 | 0.00 | 85 | 1004.6 |
| 20260505083557 | 21 | 0 | 1.6 | 8.0 | 0.00 | 0.00 | 0.00 | 85 | 1004.5 |
| 20260505083056 | 21 | 82 | 1.6 | 12.9 | 0.00 | 0.00 | 0.00 | 84 | 1004.5 |
| 20260505082555 | 21 | 0 | 1.6 | 12.9 | 0.00 | 0.00 | 0.00 | 84 | 1004.3 |
| 20260505082055 | 21 | 47 | 1.6 | 9.7 | 0.00 | 0.00 | 0.00 | 84 | 1004.4 |
| 20260505081554 | 21 | 213 | 1.6 | 9.7 | 0.00 | 0.00 | 0.00 | 83 | 1004.5 |
| 20260505081055 | 21 | 71 | 1.6 | 9.7 | 0.00 | 0.00 | 0.00 | 83 | 1004.4 |
| 20260505080556 | 21 | 58 | 1.6 | 11.3 | 0.00 | 0.00 | 0.00 | 83 | 1004.4 |
| 20260505080056 | 21 | 47 | 1.6 | 11.3 | 0.00 | 0.00 | 0.00 | 82 | 1004.5 |
| 20260505075552 | 21 | 0 | 1.6 | 9.7 | 0.00 | 0.00 | 0.00 | 82 | 1004.4 |
| 20260505075055 | 22 | 0 | 3.2 | 9.7 | 0.00 | 0.00 | 0.00 | 82 | 1004.6 |
| 20260505074555 | 22 | 13 | 1.6 | 9.7 | 0.00 | 0.00 | 0.00 | 82 | 1004.4 |
| 20260505074058 | 22 | 201 | 1.6 | 11.3 | 0.00 | 0.00 | 0.00 | 81 | 1004.5 |
| 20260505073554 | 22 | 306 | 3.2 | 11.3 | 0.00 | 0.00 | 0.00 | 81 | 1004.7 |
| 20260505073100 | 22 | 47 | 1.6 | 9.7 | 0.00 | 0.00 | 0.00 | 81 | 1004.8 |
| 20260505072555 | 22 | 268 | 1.6 | 9.7 | 0.00 | 0.00 | 0.00 | 80 | 1004.9 |
| 20260505072056 | 22 | 44 | 3.2 | 17.7 | 0.00 | 0.00 | 0.00 | 80 | 1004.9 |
| 20260505071553 | 22 | 101 | 4.8 | 17.7 | 0.00 | 0.00 | 0.00 | 80 | 1004.8 |
| 20260505071055 | 22 | 328 | 1.6 | 12.9 | 0.00 | 0.00 | 0.00 | 80 | 1004.9 |
| 20260505070555 | 22 | 47 | 1.6 | 12.9 | 0.00 | 0.00 | 0.00 | 79 | 1005.0 |
| 20260505070058 | 22 | 189 | 1.6 | 12.9 | 0.00 | 0.00 | 0.00 | 79 | 1004.9 |
| 20260505065555 | 22 | 127 | 1.6 | 12.9 | 0.00 | 0.00 | 0.00 | 79 | 1005.1 |
| 20260505065055 | 22 | 54 | 3.2 | 12.9 | 0.00 | 0.00 | 0.00 | 78 | 1005.2 |
| 20260505064602 | 22 | 180 | 3.2 | 9.7 | 0.00 | 0.00 | 0.00 | 78 | 1005.2 |
| 20260505064055 | 22 | 38 | 1.6 | 9.7 | 0.00 | 0.00 | 0.00 | 77 | 1005.3 |
| 20260505063554 | 22 | 175 | 1.6 | 11.3 | 0.00 | 0.00 | 0.00 | 77 | 1005.4 |
| 20260505063055 | 22 | 207 | 3.2 | 12.9 | 0.00 | 0.00 | 0.00 | 77 | 1005.4 |
| 20260505062555 | 22 | 165 | 1.6 | 12.9 | 0.00 | 0.00 | 0.00 | 76 | 1005.4 |
| 20260505062055 | 22 | 160 | 1.6 | 11.3 | 0.00 | 0.00 | 0.00 | 76 | 1005.5 |
| 20260505061556 | 23 | 175 | 1.6 | 9.7 | 0.00 | 0.00 | 0.00 | 76 | 1005.5 |
| 20260505061055 | 23 | 126 | 3.2 | 9.7 | 0.00 | 0.00 | 0.00 | 75 | 1005.6 |
| 20260505060559 | 23 | 315 | 1.6 | 9.7 | 0.00 | 0.00 | 0.00 | 75 | 1005.5 |
| 20260505060059 | 23 | 80 | 3.2 | 9.7 | 0.00 | 0.00 | 0.00 | 75 | 1005.6 |
| 20260505055555 | 23 | 22 | 1.6 | 8.0 | 0.00 | 0.00 | 0.00 | 75 | 1005.5 |
| 20260505055055 | 23 | 75 | 1.6 | 14.5 | 0.00 | 0.00 | 0.00 | 75 | 1005.5 |
| 20260505054618 | 23 | 146 | 1.6 | 14.5 | 0.00 | 0.00 | 0.00 | 75 | 1005.6 |
| 20260505054058 | 23 | 128 | 1.6 | 14.5 | 0.00 | 0.00 | 0.00 | 75 | 1005.5 |
| 20260505053555 | 23 | 71 | 1.6 | 9.7 | 0.00 | 0.00 | 0.00 | 74 | 1005.7 |
| 20260505053056 | 23 | 236 | 1.6 | 11.3 | 0.00 | 0.00 | 0.00 | 74 | 1005.5 |